Find Starlink 37626

NORAD ID: 100419 Int'l Des: 2026-192 Owner: SPXS Country: US Constellation: starlink operational

Current View

Loading 3D Globe...

About Starlink 37626

Starlink 37626 (NORAD 100419) is a starlink constellation satellite launched Aug 21, 2026 by SPXS of US. with a mass of 575.00 kg.

Upcoming Passes

Passes for default location (London). Set your location on the main map for personalized predictions.

Altitude History

Loading altitude history...

Two-Line Element Set

1 A0419U 26192R 26261.05105044 .00086451 00000-0 13448-2 0 9996
2 A0419 53.1589 317.4790 0000803 86.6599 273.4504 15.53210481 5530
Epoch: Sep 18, 2026 • Age: 63 hours

Current Status

Altitude 406.3 km
Apogee / Perigee N/A
Velocity 7.67 km/s
Sub-Earth Point 6.09°N, 61.28°E
Launch Date Aug 21, 2026
Age 30 days
Type internet

Technical Details

Classification Payload
Mass 575.00 kg
Dry Mass 530.00 kg
Length 0.30 m
Span 29.00 m
Shape ? Box + pan
Manufacturer SPXS
Bus Type Starlink V2MO
Phase Status In Orbit
Owner/State SPXS/US

Most Searched